Home > Time Zones > World Clock > Weather > Russia > Ufa > Past weeks

Flag for Russia Weather past 2 weeks in Ufa, Russia

Now
7 °F

Ice fog.


Feels Like: -4 °F
Forecast: 6 / 28 °F
Wind: 6 mph from Southeast

Location: Ufa

Current Time: Mar 1, 2015 at 10:28:48 AM

Latest Report: Mar 1, 2015 at 10:00 AM


Visibility: 2 mi

Pressure: 30.51 "Hg

Humidity: 85%

Dew point: 3 °F

Location of UfaLocation

Historic Weather in Ufa — Graph

°F

Ufa temperature yesterday

Maximum temperature yesterday: 27 °F (at 4:00 PM)
Minimum temperature yesterday: 1 °F (at 8:30 AM)
Average temperature yesterday: 13 °F

Past Weeks' High & Low Weather Summary

 TemperatureHumidityPressure
High32 °F (Feb 24, 3:30 PM)100% (Feb 21, 11:00 PM)30.74 "Hg (Feb 21, 11:00 PM)
Low-15 °F (Feb 18, 9:00 AM)61% (Feb 17, 6:30 PM)29.89 "Hg (Feb 15, 9:30 PM)
Average15 °F84%30.31 "Hg
* Reported Feb 14 9:00 AM — Mar 1 9:00 AM, Ufa, Weather by CustomWeather, © 2015

Note: Actual official high and low records may vary slightly from our data, if they occured in-between our weather recording intervals... More about our weather records

Advertising

Ufa weather history for previous 24 hours

 ConditionsComfort  
Time TempWeatherWind HumidityBarometerVisibility
9:00 AM
Sun, Mar 1
5 °FIce fog.3 mph85%30.51 "Hg2 mi
8:30 AM1 °FIce fog.3 mph92%30.51 "Hg2 mi
8:00 AM3 °FIce fog.3 mph85%30.51 "Hg1 mi
7:30 AM3 °FIce fog.3 mph92%30.51 "Hg1 mi
7:00 AM3 °FIce fog.6 mph92%30.51 "Hg2 mi
6:30 AM5 °FIce fog.1 mph85%30.51 "Hg2 mi
6:00 AM1 °FIce fog.3 mph85%30.51 "Hg3 mi
5:30 AM1 °FIce fog.1 mph85%30.51 "Hg3 mi
5:00 AM1 °FIce fog.3 mph92%30.51 "Hg2 mi
4:30 AM3 °FIce fog.3 mph85%30.51 "Hg3 mi
4:00 AM1 °FIce fog.3 mph92%30.51 "Hg3 mi
3:30 AM3 °FIce fog.3 mph92%30.51 "Hg3 mi
3:00 AM3 °FIce fog.3 mph92%30.51 "Hg3 mi
2:30 AM5 °FIce fog.1 mph92%30.51 "Hg3 mi
2:00 AM7 °FIce fog.1 mph92%30.51 "Hg3 mi
1:30 AM7 °FIce fog.3 mph85%30.51 "Hg3 mi
1:00 AM9 °FIce fog.No wind92%30.51 "Hg3 mi
12:30 AM7 °FIce fog.No wind92%30.51 "Hg3 mi
12:00 AM7 °FIce fog.No wind85%30.51 "Hg3 mi
11:30 PM
Sat, Feb 28
9 °FIce fog.No wind92%30.51 "Hg3 mi
11:00 PM10 °FClear.1 mph92%30.54 "Hg10 mi
10:30 PM10 °FClear.No wind92%30.54 "Hg10 mi
10:00 PM12 °FClear.No wind85%30.54 "Hg10 mi
9:30 PM12 °FClear.No wind85%30.54 "Hg10 mi
9:00 PM12 °FClear.No wind85%30.54 "Hg10 mi
8:30 PM16 °FSunny.No wind79%30.54 "Hg10 mi
8:00 PM16 °FSunny.1 mph79%30.54 "Hg10 mi
7:30 PM18 °FSunny.3 mph73%30.54 "Hg10 mi
7:00 PM19 °FSunny.3 mph73%30.54 "Hg10 mi
6:30 PM21 °FSunny.3 mph68%30.54 "Hg10 mi
6:00 PM25 °FSunny.3 mph69%30.54 "Hg10 mi
5:30 PM25 °FSunny.3 mph69%30.54 "Hg10 mi
5:00 PM27 °FSunny.1 mph69%30.54 "Hg10 mi
4:30 PM27 °FSunny.3 mph64%30.54 "Hg10 mi
4:00 PM27 °FSunny.1 mph64%30.57 "Hg10 mi
3:30 PM25 °FSunny.1 mph69%30.57 "Hg10 mi
3:00 PM21 °FSunny.3 mph74%30.57 "Hg10 mi
2:30 PM21 °FSunny.3 mph74%30.57 "Hg10 mi
2:00 PM19 °FSunny.6 mph73%30.57 "Hg10 mi
1:30 PM19 °FSunny.3 mph73%30.57 "Hg10 mi
1:00 PM18 °FIce fog.3 mph73%30.60 "Hg2 mi
12:30 PM16 °FIce fog.1 mph79%30.57 "Hg2 mi
12:00 PM14 °FIce fog.1 mph92%30.57 "Hg2 mi
11:30 AM10 °FIce fog.3 mph85%30.60 "Hg2 mi
11:00 AM7 °FIce fog.1 mph92%30.60 "Hg2 mi
10:30 AM5 °FIce fog.1 mph92%30.60 "Hg2 mi
10:00 AM5 °FIce fog.1 mph92%30.60 "Hg2 mi
Weather by CustomWeather, © 2015

See weather overviewHow to use our weather pages